Weather in Valmiera

Latvia     57°31′57″N   25°25′17″E
temp.,
°C
wind,
m/s
gust,
m/s
humid.,
%
clouds,
%
prec.,
mm/h
press.,
hPa
HPBL,
m
12 may, wed
wed1200:00+14se3127254 0.0 1019369
03:00+11se38815 0.0 1019179
06:00+11se3108058 0.0 1019219
09:00+18sse49635 0.0 1019545
12:00+23se584862 0.0 10181397
15:00+24se684225 0.0 10172152
18:00+23se46480 0.0 10161987
21:00+16se26740 0.0 1016121
13 may, thu
thu1300:00+12se22820 0.0 101623
03:00+11ene228320 0.0 101414
06:00+11ne3118280 0.0 1011273
09:00+16ese697265 0.1 10101082
12:00+17se69481 0.1 10111495
15:00+19ese794171 0.1 10092467
18:00+16ese59679 0.4 10091352
21:00+11ese378340 0.8 1009216
14 may, fri
fri1400:00+8ese279388 0.0 1009161
03:00+7ese269435 0.0 1008129
06:00+7e39935 0.0 1008254
09:00+13e5964100 0.0 1006833
12:00+11ese4980100 0.1 1006697
15:00+15se4871100 0.2 10051112
18:00+13sse3883100 0.3 1005755
21:00+12se268976 0.3 1006403
15 may, sat
sat1500:00+11se249585 0.0 1006124
03:00+11sse129397 0.0 100672
06:00+10sse11975 0.0 100515
09:00+15sw127170 0.0 1006570
12:00+19wnw225586 0.0 10061335
15:00+20wnw435293 0.0 10051693
18:00+17wnw555420 0.0 1006849
21:00+12nw3873100 0.0 1007373
16 may, sun
sun1600:00+9wnw2776100 0.0 1008241
03:00+8wnw2784100 0.1 1009213
06:00+7wnw269093 0.1 1009187
09:00+12wnw346961 0.1 1010582
12:00+16wnw335396 0.0 10111189
15:00+18wnw2247100 0.0 10111587
18:00+18nw224827 0.0 10111595
21:00+13nnw22763 0.0 101227